Погода Благодарный

Погода Благодарный : погода сейчас, прогноз погоды и архив. Всё, что Вы хотите узнать о погоде Благодарный!

Поиск расширенной информации на нашем сайте:

Другие новости

Новости СМИ2

Главная страница сайта

Новости сайта

03.07.2017

Напоминаем, что на нашем специализированном сайте Метеоцентр.Азия вы можете получить высокодетализированные автоматические прогнозы погоды по пунктам России, СНГ и мира в авиационном формате (включающие направление и скорость ветра, видимость, явления погоды, количество и форму облачности, нижнюю и верхнюю границу облачности).


Погода Благодарный - сегодня

Время (UTC), дата Ветер
(°,м/с) 
Видим.   Явления Облачность Т
(°С)
Тd
(°С)
f(%) Тe
(°С)
Pmin
(гПа)
dP
(гПа)
Po
(мм)
O2
(г/м3)
Тmin Tmax R s Состояние
почвы
09 16.08.18 100 (В) 4{14}  20000 м    4/4 600 м 
[Cu hum]
+30.2 +12.4 34 +35  1013.5  -1.2  746  269           
12 16.08.18 090 (В) 5-10{13}  20000 м    3/0 средняя 
[Ac trans]
+32 +10.6 27 +34  1011.8  -1.5  745  267           
15 16.08.18 100 (В) 4{11}  20000 м    ясно 
+29.7 +9.3 28 +30  1012  745  269    +32       
18 16.08.18 080 (В) 2{10}  20000 м    ясно 
+23.7 +8.1 37 +24  1013.8  1.4  746  275           
21 16.08.18 080 (В) 20000 м    ясно 
+20 +9.9 52 +21  1013.9  0.1  746  278           
00 17.08.18 050 (СВ) 20000 м    ясно 
+17 +11.9 72 +22  1013.7  -0.4  746  281           
03 17.08.18 тихо ()   20000 м    ясно 
+14.9 +12.4 85 +20  1014.1  0.2  746  283  +13.9        сухая 
06 17.08.18 120 (ЮВ) 20000 м    ясно 
+24.4 +15.7 58 +34  1013.5  746  273           
09 17.08.18 070 (В) 20000 м    ясно 
+29.3 +10.8 32 +32  1012.1  -1.1  745  269           
12 17.08.18 110 (В) 20000 м    ясно 
+32 +10.3 26 +34  1010.5  -1.4  744  267           
15 17.08.18 060 (СВ) 20000 м    ясно 
+31.1 +8.9 25 +31  1009.9  -0.6  744  268    +32.3       
18 17.08.18 040 (СВ) 20000 м    6/6 600 м 
[Sc]
+25.8 +8.5 33 +26  1010.8  0.5  744  273           
21 17.08.18 050 (СВ) 20000 м    ясно 
+22 +8.8 43 +22  1011.2  0.2  744  276           
00 18.08.18 тихо ()   20000 м    ясно 
+16 +10.8 71 +18  1011  -0.5  744  281           
03 18.08.18 280 (З) 20000 м    ясно 
+16.1 +10 67 +18  1011.6  0.5  744  281  +14.5        сухая 
06 18.08.18 040 (СВ) 20000 м    1/0 верхняя 
[Ci fib]
+29.1 +4.5 21 +29  1010.7  0.1  744  270           
09 18.08.18 070 (В) 20000 м    1/0 верхняя 
[Ci fib]
+31.7 +0.4 13 +32  1010.2  -0.3  744  269           
12 18.08.18 050 (СВ) 20000 м    8/0 верхняя 
[Ci fib]
+32.5 +1.3 14 +33  1009.5  -0.6  744  268           
15 18.08.18 070 (В) 20000 м    9/8 600 м верхняя 
[Sc|Ci fib]
+31.3 +3.2 17 +31  1009.8  0.2  744  268    +33       
18 18.08.18 190 (Ю) 20000 м    4/4 600 м 
[Sc]
+22.7 +9.4 43 +23  1011.6  1.3  745  275           
21 18.08.18 060 (СВ) 4{11}  20000 м    ясно 
+22.8 +11.4 49 +26  1013  1.4  746  275           
00 19.08.18 040 (СВ) 20000 м    6/0 средняя 
[Ac trans]
+18.7 +9.7 56 +21  1014  0.7  746  280           
03 19.08.18 040 (СВ) 20000 м    ясно 
+18 +3.2 37 +19  1015.7  1.5  747  282  +17.3        сухая 
06 19.08.18 060 (СВ) 20000 м    ясно 
+22.9 +3.6 28 +23  1016.4  748  278           
09 19.08.18 040 (СВ) 5{10}  20000 м    ясно 
+25.5 +2.3 22 +26  1015.5  -0.7  748  275           
Время (UTC), дата Ветер
(°,м/с) 
Видим.   Явления Облачность Т
(°С)
Тd
(°С)
f(%) Тe
(°С)
Pmin
(гПа)
dP
(гПа)
Po
(мм)
O2
(г/м3)
Тmin Tmax R s Состояние
почвы

Для получения пояснительной информации подведите курсор к названию столбца.

ПОГОДА Благодарный - архив

Всё, что Вы хотите узнать о погоде Благодарный - удобно и подробно!

Выберите нужную дату (начиная с 1 января 2015* года) и нажмите кнопку "Найти".
Будут отображены архивные сводки погоды по пункту Благодарный, начиная с указанной даты.


Отображать данные в формате CSV (для использования в таблицах Excel)


Внимание! Наш архив погоды предназначен исключительно для личного некоммерческого использования в познавательных целях. Если Вам необходимы официальные справки о состоянии погоды (для производственных, юридических, коммерческих и т.п. целей), обращайтесь в органы Росгидромета.

*Примечание: данная дата относится к архиву по метеостанциям СССР (Россия, СНГ, Балтия).
Архив по метеостанциям Зарубежной Европы и Азии (кроме Китая) хранится 10 дней, по другим регионам земного шара (Китай, Африка, Америка, Австралия, Океания) - 1 день.

Благодарный - район местоположения метеостанции


Название, широта, долгота, высота метеостанции:
Благодарный 45.1°ш. 43.4°д. 162 м над ур. моря [Российская Федерация]

Дополнительная информация

В oтличие oт бoльшинства пoгoдных сайтoв мы публикуем пoдрoбную метеoинфoрмацию в детальнoм прoфессиoнальнoм фoрмате.

Характеристики температуры и влажнoсти вoздуха измеряются на высoте 2 м в тени вдали oт зданий и деревьев.
Скoрoсть ветра измеряется на высoте 10 м (на урoвне рoста челoвека скoрoсть ветра ниже в 1.5-2 раза). Если метеoстанция нахoдится в гoрoде или в лесу, тo скoрoсть ветра занижена на 2-4 м/с пo сравнению с oткрытым местoм. Скoрoсть ветра над акватoриями крупных рек и oзёр, а также на вершинах хoлмoв на 2-5 м/с выше, чем в oбычных услoвиях.
Атмoсфернoе давление в разных тoчках местнoсти мoжет значительнo oтличаться oт давления на метеoстанции, в зависимoсти oт услoвий рельефа (при пoдъёме на 10 м давление пoнижается примернo на 1 мм рт.ст.).